H1 CPF 2 COD 2024 7 25 1 207 1 galileo215 NONE
H2 1707901 7215 43055 2024 7 24 23 59 42 2024 7 29 23 59 42 900 1 1 0 0 0 1
H5 0.5555
H9
10 0 60518  75582.000000  0   19858328.197   7766050.093  20537549.269
10 0 60518  76482.000000  0   18076027.897   8465683.969  21864144.513
10 0 60518  77382.000000  0   16249600.852   9333580.469  22918954.483
10 0 60518  78282.000000  0   14415792.240  10366060.927  23688869.400
10 0 60518  79182.000000  0   12610519.656  11553330.097  24164318.012
10 0 60518  80082.000000  0   10867794.383  12879735.090  24339386.196
10 0 60518  80982.000000  0    9218704.444  14324209.646  24211890.425
10 0 60518  81882.000000  0    7690491.087  15860889.972  23783405.208
10 0 60518  82782.000000  0    6305747.439  17459883.027  23059244.149
10 0 60518  83682.000000  0    5081764.284  19088163.387  22048394.817
10 0 60518  84582.000000  0    4030043.316  20710570.775  20763408.172
10 0 60518  85482.000000  0    3155993.031  22290877.203  19220243.829
10 0 60518  86382.000000  0    2458816.706  23792890.450  17438072.978
10 0 60519    882.000000  0    1931595.952  25181559.425  15439041.308
10 0 60519   1782.000000  0    1561567.178  26424046.893  13247994.771
10 0 60519   2682.000000  0    1330582.300  27490735.967  10892171.519
10 0 60519   3582.000000  0    1215739.219  28356138.863   8400863.768
10 0 60519   4482.000000  0    1190162.264  28999679.385   5805053.768
10 0 60519   5382.000000  0    1223908.062  29406324.581   3137028.389
10 0 60519   6282.000000  0    1284968.351  29567045.707    429977.150
10 0 60519   7182.000000  0    1340338.152  29479093.970  -2282421.274
10 0 60519   8082.000000  0    1357115.670  29146082.373  -4966418.837
10 0 60519   8982.000000  0    1303599.256  28577871.034  -7588618.907
10 0 60519   9882.000000  0    1150346.864  27790259.580 -10116392.714
10 0 60519  10782.000000  0     871164.592  26804496.240 -12518286.215
10 0 60519  11682.000000  0     443993.147  25646619.067 -14764412.219
10 0 60519  12582.000000  0    -148335.731  24346649.957 -16826822.855
10 0 60519  13482.000000  0    -917496.735  22937666.772 -18679857.696
10 0 60519  14382.000000  0   -1869241.363  21454782.685 -20300463.218
10 0 60519  15282.000000  0   -3003154.779  19934064.737 -21668479.606
10 0 60519  16182.000000  0   -4312606.872  18411425.514 -22766891.378
10 0 60519  17082.000000  0   -5784899.146  16921522.635 -23582038.761
10 0 60519  17982.000000  0   -7401602.925  15496700.488 -24103787.214
10 0 60519  18882.000000  0   -9139078.375  14166007.302 -24325653.070
10 0 60519  19782.000000  0  -10969158.180  12954318.255 -24244883.759
10 0 60519  20682.000000  0  -12859974.565  11881591.992 -23862491.666
10 0 60519  21582.000000  0  -14776903.893  10962283.724 -23183241.219
10 0 60519  22482.000000  0  -16683599.350  10204933.190 -22215589.377
10 0 60519  23382.000000  0  -18543079.506   9611940.271 -20971580.251
10 0 60519  24282.000000  0  -20318838.777   9179535.190 -19466695.158
10 0 60519  25182.000000  0  -21975945.109   8897944.109 -17719659.932
10 0 60519  26082.000000  0  -23482090.598   8751744.850 -15752211.867
10 0 60519  26982.000000  0  -24808562.217   8720401.487 -13588829.161
10 0 60519  27882.000000  0  -25931102.317   8778960.945 -11256426.206
10 0 60519  28782.000000  0  -26830631.992   8898889.669  -8784018.503
10 0 60519  29682.000000  0  -27493814.718   9049024.017  -6202361.376
10 0 60519  30582.000000  0  -27913442.635   9196604.464  -3543567.014
10 0 60519  31482.000000  0  -28088633.458   9308361.067   -840704.621
10 0 60519  32382.000000  0  -28024831.888   9351616.026   1872611.287
10 0 60519  33282.000000  0  -27733615.572   9295368.659   4562639.265
10 0 60519  34182.000000  0  -27232311.781   9111328.652   7195930.760
10 0 60519  35082.000000  0  -26543436.900   8774865.088   9739746.076
10 0 60519  35982.000000  0  -25693976.391   8265841.428  12162461.295
10 0 60519  36882.000000  0  -24714527.872   7569310.187  14433961.082
10 0 60519  37782.000000  0  -23638334.234   6676045.481  16526012.479
10 0 60519  38682.000000  0  -22500237.110   5582896.710  18412615.096
10 0 60519  39582.000000  0  -21335583.517   4292952.243  20070323.387
10 0 60519  40482.000000  0  -20179119.882   2815507.920  21478537.078
10 0 60519  41382.000000  0  -19063908.048   1165841.283  22619756.238
10 0 60519  42282.000000  0  -18020297.132   -635201.479  23479797.889
10 0 60519  43182.000000  0  -17074983.344  -2561793.077  24047971.585
10 0 60519  44082.000000  0  -16250187.087  -4583868.911  24317211.816
10 0 60519  44982.000000  0  -15562973.033  -6668004.010  24284165.677
10 0 60519  45882.000000  0  -15024734.340  -8778395.867  23949234.722
10 0 60519  46782.000000  0  -14640857.133 -10877922.636  23316570.496
10 0 60519  47682.000000  0  -14410575.676 -12929243.784  22394023.754
10 0 60519  48582.000000  0  -14327022.777 -14895908.968  21193047.950
10 0 60519  49482.000000  0  -14377473.851 -16743440.595  19728558.107
10 0 60519  50382.000000  0  -14543777.010 -18440356.364  18018746.721
10 0 60519  51282.000000  0  -14802955.753 -19959099.874  16084858.880
10 0 60519  52182.000000  0  -15127965.393 -21276850.256  13950929.292
10 0 60519  53082.000000  0  -15488579.535 -22376185.518  11643484.393
10 0 60519  53982.000000  0  -15852378.818 -23245578.852   9191213.171
10 0 60519  54882.000000  0  -16185810.887 -23879712.345   6624610.745
10 0 60519  55782.000000  0  -16455288.303 -24279598.268   3975599.127
10 0 60519  56682.000000  0  -16628289.858 -24452504.141   1277129.881
10 0 60519  57582.000000  0  -16674430.639 -24411683.913  -1437226.327
10 0 60519  58482.000000  0  -16566467.135 -24175923.734  -4133698.112
10 0 60519  59382.000000  0  -16281205.718 -23768916.604  -6778734.415
10 0 60519  60282.000000  0  -15800285.825 -23218485.571  -9339422.874
10 0 60519  61182.000000  0  -15110813.151 -22555679.939 -11783900.227
10 0 60519  62082.000000  0  -14205822.846 -21813772.925 -14081749.567
10 0 60519  62982.000000  0  -13084558.065 -21027192.305 -16204379.447
10 0 60519  63882.000000  0  -11752555.026 -20230417.670 -18125380.061
10 0 60519  64782.000000  0  -10221531.835 -19456878.974 -19820852.072
10 0 60519  65682.000000  0   -8509084.443 -18737890.960 -21269703.990
10 0 60519  66582.000000  0   -6638199.215 -18101656.918 -22453914.414
10 0 60519  67482.000000  0   -4636597.264 -17572373.034 -23358755.943
10 0 60519  68382.000000  0   -2535931.028 -17169461.395 -23972977.993
10 0 60519  69282.000000  0    -370858.114 -16906955.684 -24288946.317
10 0 60519  70182.000000  0    1821978.675 -16793058.778 -24302737.538
10 0 60519  71082.000000  0    4005033.341 -16829886.096 -24014187.555
10 0 60519  71982.000000  0    6140966.981 -17013402.688 -23426893.252
10 0 60519  72882.000000  0    8193751.751 -17333556.030 -22548167.508
10 0 60519  73782.000000  0   10129734.076 -17774600.308 -21388948.045
10 0 60519  74682.000000  0   11918623.990 -18315602.044 -19963661.252
10 0 60519  75582.000000  0   13534379.738 -18931111.158 -18290042.638
10 0 60519  76482.000000  0   14955960.095 -19591976.447 -16388916.122
10 0 60519  77382.000000  0   16167920.945 -20266279.874 -14283934.870
10 0 60519  78282.000000  0   17160837.566 -20920360.355 -12001286.885
10 0 60519  79182.000000  0   17931539.493 -21519894.905  -9569368.990
10 0 60519  80082.000000  0   18483150.727 -22031003.188  -7018433.272
10 0 60519  80982.000000  0   18824934.130 -22421340.783  -4380210.387
10 0 60519  81882.000000  0   18971945.021 -22661146.811  -1687514.462
10 0 60519  82782.000000  0   18944504.952 -22724213.023   1026165.461
10 0 60519  83682.000000  0   18767512.290 -22588743.872   3727082.295
10 0 60519  84582.000000  0   18469611.354 -22238080.565   6381650.858
10 0 60519  85482.000000  0   18082246.295 -21661266.346   8956865.622
10 0 60519  86382.000000  0   17638629.481 -20853435.243  11420711.036
10 0 60520    882.000000  0   17172656.849 -19816012.087  13742559.290
10 0 60520   1782.000000  0   16717804.300 -18556717.496  15893550.580
10 0 60520   2682.000000  0   16306039.782 -17089377.659  17846951.167
10 0 60520   3582.000000  0   15966785.204 -15433544.837  19578484.828
10 0 60520   4482.000000  0   15725960.705 -13613940.434  21066633.644
10 0 60520   5382.000000  0   15605141.217 -11659737.982  22292904.468
10 0 60520   6282.000000  0   15620851.739  -9603708.410  23242057.854
10 0 60520   7182.000000  0   15784023.361  -7481254.206  23902296.690
10 0 60520   8082.000000  0   16099627.076  -5329362.536  24265412.274
10 0 60520   8982.000000  0   16566496.843  -3185509.908  24326886.069
10 0 60520   9882.000000  0   17177347.484  -1086552.440  24085945.933
10 0 60520  10782.000000  0   17918986.895    932363.738  23545576.114
10 0 60520  11682.000000  0   18772716.014   2838838.075  22712480.871
10 0 60520  12582.000000  0   19714904.118   4604164.942  21597002.133
10 0 60520  13482.000000  0   20717721.548   6204167.200  20212992.131
10 0 60520  14382.000000  0   21750007.018   7619888.017  18577642.488
10 0 60520  15282.000000  0   22778242.464   8838119.399  16711271.805
10 0 60520  16182.000000  0   23767604.952   9851750.932  14637074.253
10 0 60520  17082.000000  0   24683062.771  10659927.899  12380832.214
10 0 60520  17982.000000  0   25490481.361  11268013.807   9970596.457
10 0 60520  18882.000000  0   26157704.407  11687358.572   7436337.770
10 0 60520  19782.000000  0   26655576.159  11934879.629   4809574.359
10 0 60520  20682.000000  0   26958872.849  12032469.163   2122979.637
10 0 60520  21582.000000  0   27047113.899  12006246.105   -590024.662
10 0 60520  22482.000000  0   26905227.364  11885676.450  -3295684.955
10 0 60520  23382.000000  0   26524048.651  11702589.589  -5960336.576
10 0 60520  24282.000000  0   25900636.747  11490121.645  -8550823.545
10 0 60520  25182.000000  0   25038397.970  11281619.114 -11034912.014
10 0 60520  26082.000000  0   23947013.280  11109537.325 -13381692.161
99